Home   Weather   Cape Town   Past weeks
Flag for South Africa

Past Weather in Cape Town, South Africa — Yesterday and Last 2 Weeks

Now
70 °F

Clear.


Feels Like: 70 °F
Forecast: 73 / 67 °F
Wind: 17 mph from South

Location: Cape Town International Airport

Current Time: Feb 19, 2019 at 5:02:11 am

Latest Report: Feb 19, 2019 at 4:00 am


Visibility: 10 mi

Pressure: 29.80 "Hg

Humidity: 69%

Dew Point: 59 °F

Location of Cape TownLocation

Past Weather in Cape Town — Graph

°F

Cape Town Temperature Yesterday

Maximum temperature yesterday: 81 °F (at 11:00 am)
Minimum temperature yesterday: 64 °F (at 3:00 am)
Average temperature yesterday: 72 °F

High & Low Weather Summary for the Past Weeks

 TemperatureHumidityPressure
High97 °F (Feb 7, 2:00 pm)100% (Feb 4, 3:00 am)30.09 "Hg (Feb 4, 3:00 am)
Low61 °F (Feb 4, 6:00 am)20% (Feb 7, 3:00 pm)29.71 "Hg (Feb 7, 6:00 am)
Average72 °F69%29.91 "Hg
* Reported Feb 4 3:00 am — Feb 19 3:00 am, Cape Town. Weather by CustomWeather, © 2019

Note: Actual official high and low records may vary slightly from our data, if they occured in-between our weather recording intervals... More about our weather records

Advertising

Cape Town Weather History for the Previous 24 Hours

Scroll right to see more
 ConditionsComfort  
Time TempWeatherWind HumidityBarometerVisibility
3:00 am
Tue, Feb 19
70 °FClear.10 mph73%29.83 "Hg10 mi
2:00 am68 °FClear.16 mph73%29.86 "Hg10 mi
1:00 am68 °FClear.14 mph73%29.89 "Hg10 mi
12:00 am72 °FClear.12 mph69%29.89 "Hg10 mi
11:00 pm
Mon, Feb 18
73 °FPassing clouds.13 mph65%29.89 "HgN/A
10:54 pm73 °FPassing clouds.13 mph65%29.89 "HgN/A
10:00 pm68 °FClear.15 mph78%29.92 "Hg10 mi
9:00 pm68 °FClear.15 mph78%29.92 "Hg10 mi
8:00 pm70 °FClear.15 mph73%29.89 "Hg10 mi
7:00 pm73 °FSunny.13 mph69%29.89 "Hg10 mi
6:00 pm73 °FSunny.16 mph69%29.89 "Hg10 mi
5:00 pm77 °FSunny.18 mph61%29.89 "Hg10 mi
4:00 pm77 °FSunny.18 mph61%29.89 "Hg10 mi
3:00 pm81 °FSunny.16 mph54%29.92 "Hg10 mi
2:00 pm81 °FSunny.14 mph51%29.92 "Hg10 mi
12:00 pm81 °FPassing clouds.8 mph45%29.95 "HgN/A
11:00 am81 °FPassing clouds.10 mph48%29.98 "HgN/A
10:00 am79 °FPassing clouds.5 mph51%29.95 "HgN/A
9:57 am79 °FPassing clouds.5 mph51%29.95 "HgN/A
9:00 am73 °FPassing clouds.5 mph61%29.95 "HgN/A
8:54 am73 °FPassing clouds.5 mph61%29.95 "HgN/A
8:00 am68 °FSunny.5 mph69%29.95 "Hg10 mi
7:00 am64 °FSunny.5 mph78%29.95 "Hg10 mi
6:00 am64 °FClear.8 mph78%29.92 "Hg10 mi
5:00 am66 °FClear.7 mph78%29.92 "Hg10 mi
Weather by CustomWeather, © 2019

See weather overview